NOAA 16 DEB

Satellite information

Favourite Embed

Satellite Type and Status

DEBRISIN ORBIT

Key statistics

Satellite NOAA 16 DEB at a glance.

Uptime

9160

Days in orbit

Revolutions

≈ 14.8

Per day

Orbit

SSO

Sun Synchronous Orbit

Inclination

98.8

Latest

Satellite identification and parameters

Extended collection of information and parameters for NOAA 16 DEB.

Object identification

Identified? True

Debris? True

Object name: NOAA 16 DEB

International designator: 2000-055FT

Object number (NORAD): 41267

Object ID (CCSDS): 41267

Country: UNITED STATES OF AMERICA (US)

Current information (Y/N): Y

RCS size: SMALL

Orbital parameters

Period: 97.323 minutes

Inclination: 98.8073 deg

SMA: 7008.685 km

Apoapsis: 648.779 km

Periapsis: 612.322 km

RAAN: 101.2194 deg

Eccentricy: 0.00260084

Argument of periapsis: 325.442 deg

Mean anomaly: 34.5097 deg

Mean motion: 14.79612317 rev/day

Mean motion (dot): 0.00061118 rev/day2

B* drag term: 0.0080465039 1/REarth

Two-line elements (TLE)

Creation date: Oct. 20, 2025, 2:10 a.m.

Reference frame: TEME

Reference center: EARTH

Epoch: Oct. 19, 2025, 10:04 p.m. UTC

TLE line 0: 0 NOAA 16 DEB

TLE line 1: 1 41267U 00055FT 25292.91998118 .00061118 00000-0 80465-2 0 9998

TLE line 2: 2 41267 98.8073 101.2194 0026008 325.4420 34.5097 14.79612317515203

Live tracking on map

Real-time ground track for satellite NOAA 16 DEB.

In-orbit conjunctions

A list of the most updated potential collisions computed for object NOAA 16 DEB.

Target Orbit TCA Probability of collision Miss distance Type
PEGASUS DEB LEO 2025-02-02 14:37:57 0.0001118683 116.0 (m) DEBRIS
CZ-6A DEB LEO 2025-01-17 13:48:59 0.0005372055 126.0 (m) DEBRIS
CZ-6A DEB LEO 2025-01-09 03:21:18 0.0004164293 433.0 (m) DEBRIS
COSMOS 1275 DEB LEO 2024-09-26 03:42:53 0.0004936551 597.0 (m) DEBRIS
CZ-2D R/B SSO 2024-09-09 20:51:54 0.0003644118 386.0 (m) ROCKET BODY

Associated space launch

The NOAA K, L and M POES satellites begin the fifth generation of improved environmental monitoring in support of NOAA missions. The instrument payload has significant improvements and additions/deletions. The instrument changes have effected the spacecraft subsystems and data formats.

NOAA 16 DEB was lifted into orbit during the mission ‘Titan II SLV | NOAA 16’, on board a Titan II SLV space rocket.

The launch took place on Sept. 21, 2000, 10:22 a.m. from Space Launch Complex 4W.

For more information about the launch, click the button.

Launch to space Titan II SLV | NOAA 16
Titan II SLV | NOAA 16

Agency: N/A

Status: Launch Successful

Launch date: Sept. 21, 2000, 10:22 a.m. UTC

Rocket: Titan II SLV

Launch pad: Space Launch Complex 4W

Location: Vandenberg SFB, CA, USA

...

Latest news about this satellite

There are no fresh news available about this satellite. Check back as we update our databases every day.


Newsletter sign-up

Weekly statistics, charts and insights to help you stay on top of the space industry.